UAE610 OMDB-VHHH

Flight info

Callsign UAE610
Flight time N/A
Altitude 39000
Route IVURO M677 LALDO B505 NADSO B524 ALPOR M504 TELEM A791 BPL/N0486F410 A791 CEA B465 CTG A599 LINSO/K0902S1250 A599 POU R473 SIERA
Aircraft A359/H-SDE2E3GHIJ3J4J5LM1ORWXY/LB1D1

Departure

Time 2026-04-26 05:00
Airport Dubai International Airport (OMDB)

Arrival

Time N/A
Airport Hong Kong International Airport (VHHH)
Time Latitude Longitude Altitude Speed Heading
2026-04-26 04:47 25.24305 55.37445 28 ft 0 kts 211°
2026-04-26 04:53 25.24307 55.37446 28 ft 3 kts 211°
2026-04-26 04:53 25.24330 55.37461 27 ft 4 kts 211°
2026-04-26 04:53 25.24353 55.37476 26 ft 4 kts 199°
2026-04-26 04:53 25.24378 55.37481 26 ft 4 kts 172°
2026-04-26 04:54 25.24401 55.37470 26 ft 4 kts 129°
2026-04-26 04:54 25.24405 55.37465 26 ft 0 kts 122°
2026-04-26 04:54 25.24406 55.37465 26 ft 0 kts 122°
2026-04-26 04:56 25.24395 55.37483 25 ft 10 kts 124°
2026-04-26 04:57 25.24351 55.37562 28 ft 13 kts 121°
2026-04-26 04:57 25.24299 55.37654 28 ft 15 kts 122°
2026-04-26 04:57 25.24271 55.37759 28 ft 14 kts 77°
2026-04-26 04:57 25.24335 55.37824 28 ft 13 kts 33°
2026-04-26 04:58 25.24416 55.37883 28 ft 15 kts 33°
2026-04-26 04:58 25.24506 55.37949 28 ft 16 kts 33°
2026-04-26 04:58 25.24602 55.38023 28 ft 17 kts 36°
2026-04-26 04:58 25.24706 55.38099 28 ft 17 kts 24°
2026-04-26 04:59 25.24774 55.38076 28 ft 10 kts 315°
2026-04-26 04:59 25.24815 55.38009 28 ft 11 kts 301°
2026-04-26 04:59 25.24862 55.37921 28 ft 23 kts 301°
2026-04-26 04:59 25.25100 55.37493 28 ft 110 kts 301°
2026-04-26 05:00 25.25643 55.36512 44 ft 186 kts 298°
2026-04-26 05:00 25.26360 55.35208 730 ft 199 kts 300°
2026-04-26 05:00 25.27057 55.33966 1590 ft 186 kts 303°
2026-04-26 05:00 25.27759 55.32709 1932 ft 200 kts 302°
2026-04-26 05:01 25.28516 55.31351 2290 ft 214 kts 302°
2026-04-26 05:01 25.29478 55.30062 2738 ft 222 kts 323°
2026-04-26 05:01 25.30908 55.29487 3352 ft 226 kts 355°
2026-04-26 05:01 25.32493 55.29471 4013 ft 229 kts
2026-04-26 05:02 25.34099 55.29533 4649 ft 232 kts
2026-04-26 05:02 25.35737 55.29696 5119 ft 246 kts 10°
2026-04-26 05:02 25.37375 55.30470 5380 ft 268 kts 36°
2026-04-26 05:02 25.38503 55.32139 5863 ft 280 kts 69°
2026-04-26 05:03 25.38712 55.34289 6480 ft 285 kts 93°
2026-04-26 05:03 25.38538 55.36490 7094 ft 289 kts 95°
2026-04-26 05:03 25.38339 55.38718 7737 ft 293 kts 95°
2026-04-26 05:03 25.38156 55.40951 8399 ft 297 kts 95°
2026-04-26 05:04 25.37981 55.43241 9103 ft 301 kts 95°
2026-04-26 05:04 25.37810 55.45565 9800 ft 305 kts 95°
2026-04-26 05:04 25.37641 55.47929 10344 ft 315 kts 95°
2026-04-26 05:04 25.37464 55.50423 10621 ft 333 kts 95°
2026-04-26 05:05 25.37278 55.53047 10874 ft 351 kts 95°
2026-04-26 05:05 25.37084 55.55805 11120 ft 367 kts 95°
2026-04-26 05:05 25.36882 55.58670 11373 ft 380 kts 95°
2026-04-26 05:05 25.36677 55.61581 11828 ft 386 kts 95°
2026-04-26 05:06 25.36466 55.64556 12386 ft 389 kts 95°
2026-04-26 05:06 25.36254 55.67549 12959 ft 392 kts 96°
2026-04-26 05:06 25.36040 55.70561 13525 ft 395 kts 96°
2026-04-26 05:06 25.35824 55.73599 14060 ft 397 kts 96°
2026-04-26 05:07 25.35605 55.76657 14506 ft 401 kts 96°
2026-04-26 05:07 25.35384 55.79745 14977 ft 405 kts 96°
2026-04-26 05:07 25.35159 55.82865 15391 ft 409 kts 96°
2026-04-26 05:07 25.34931 55.86021 15828 ft 413 kts 96°
2026-04-26 05:08 25.34701 55.89200 16285 ft 417 kts 96°
2026-04-26 05:08 25.34468 55.92417 16742 ft 421 kts 96°
2026-04-26 05:08 25.34232 55.95655 17178 ft 424 kts 96°
2026-04-26 05:08 25.33993 55.98918 17620 ft 428 kts 96°
2026-04-26 05:09 25.33751 56.02218 18058 ft 432 kts 96°
2026-04-26 05:09 25.33507 56.05540 18460 ft 435 kts 96°
2026-04-26 05:09 25.33260 56.08896 18840 ft 439 kts 96°
2026-04-26 05:09 25.33010 56.12271 19211 ft 442 kts 96°
2026-04-26 05:10 25.32760 56.15640 19632 ft 446 kts 96°
2026-04-26 05:10 25.32501 56.19062 20026 ft 449 kts 96°
2026-04-26 05:10 25.32218 56.22517 20427 ft 453 kts 96°
2026-04-26 05:10 25.31923 56.25999 20835 ft 456 kts 97°
2026-04-26 05:11 25.31622 56.29514 21268 ft 460 kts 97°
2026-04-26 05:11 25.31320 56.33043 21700 ft 463 kts 96°
2026-04-26 05:11 25.31018 56.36600 22138 ft 466 kts 96°
2026-04-26 05:11 25.30719 56.40130 22501 ft 470 kts 96°
2026-04-26 05:12 25.30489 56.43759 22915 ft 474 kts 94°
2026-04-26 05:12 25.30375 56.47418 23304 ft 478 kts 92°
2026-04-26 05:12 25.30309 56.51110 23673 ft 482 kts 92°
2026-04-26 05:12 25.30249 56.54833 24021 ft 485 kts 92°
2026-04-26 05:13 25.29974 56.58559 24435 ft 486 kts 100°
2026-04-26 05:13 25.29182 56.62187 24810 ft 487 kts 110°
2026-04-26 05:13 25.28069 56.65683 25193 ft 489 kts 112°
2026-04-26 05:13 25.26811 56.69190 25601 ft 492 kts 114°
2026-04-26 05:14 25.25478 56.72690 26016 ft 494 kts 115°
2026-04-26 05:14 25.24118 56.76188 26423 ft 497 kts 115°
2026-04-26 05:14 25.22746 56.79709 26827 ft 501 kts 115°
2026-04-26 05:14 25.21372 56.83255 27223 ft 504 kts 115°
2026-04-26 05:15 25.19996 56.86831 27621 ft 507 kts 115°
2026-04-26 05:15 25.18620 56.90429 28005 ft 510 kts 115°
2026-04-26 05:15 25.17236 56.94058 28392 ft 513 kts 115°
2026-04-26 05:15 25.15850 56.97698 28799 ft 516 kts 115°
2026-04-26 05:16 25.14455 57.01360 29198 ft 518 kts 115°
2026-04-26 05:16 25.13056 57.05029 29652 ft 518 kts 115°
2026-04-26 05:16 25.11653 57.08707 29968 ft 522 kts 115°
2026-04-26 05:16 25.10239 57.12404 30225 ft 525 kts 115°
2026-04-26 05:17 25.08831 57.16085 30457 ft 529 kts 115°
2026-04-26 05:17 25.07398 57.19830 30689 ft 532 kts 115°
2026-04-26 05:17 25.05950 57.23608 30928 ft 535 kts 115°
2026-04-26 05:17 25.04497 57.27395 31154 ft 538 kts 114°
2026-04-26 05:18 25.03033 57.31209 31383 ft 541 kts 114°
2026-04-26 05:18 25.01562 57.35035 31627 ft 543 kts 114°
2026-04-26 05:18 25.00087 57.38870 31940 ft 543 kts 114°
2026-04-26 05:18 24.98614 57.42696 32397 ft 540 kts 114°
2026-04-26 05:19 24.97148 57.46501 32771 ft 539 kts 113°
2026-04-26 05:19 24.95681 57.50304 33015 ft 541 kts 113°
2026-04-26 05:19 24.94206 57.54122 33283 ft 542 kts 113°
2026-04-26 05:19 24.92727 57.57950 33561 ft 542 kts 112°
2026-04-26 05:20 24.91245 57.61779 33838 ft 543 kts 112°
2026-04-26 05:20 24.89762 57.65609 34100 ft 543 kts 112°
2026-04-26 05:20 24.88284 57.69423 34498 ft 539 kts 112°
2026-04-26 05:20 24.86832 57.73164 34834 ft 537 kts 112°
2026-04-26 05:21 24.85360 57.76956 34999 ft 539 kts 112°
2026-04-26 05:21 24.83923 57.80777 35175 ft 540 kts 109°
2026-04-26 05:21 24.82845 57.84739 35379 ft 539 kts 103°
2026-04-26 05:21 24.81943 57.88740 35635 ft 539 kts 101°
2026-04-26 05:22 24.81095 57.92767 35871 ft 539 kts 101°
2026-04-26 05:22 24.80277 57.96805 36109 ft 538 kts 100°
2026-04-26 05:22 24.79483 58.00780 36342 ft 538 kts 100°
2026-04-26 05:22 24.78675 58.04821 36534 ft 539 kts 100°
2026-04-26 05:23 24.78139 58.07489 36662 ft 539 kts 100°
2026-04-26 05:23 24.77323 58.11529 36860 ft 540 kts 100°
2026-04-26 05:23 24.76503 58.15560 37058 ft 540 kts 100°
2026-04-26 05:23 24.75399 58.20958 37313 ft 541 kts 100°
2026-04-26 05:24 24.74582 58.24940 37538 ft 540 kts 100°
2026-04-26 05:24 24.74022 58.27661 37679 ft 540 kts 100°
2026-04-26 05:24 24.73192 58.31694 37847 ft 540 kts 100°
2026-04-26 05:24 24.72369 58.35687 38009 ft 541 kts 100°
2026-04-26 05:25 24.71538 58.39718 38178 ft 541 kts 100°
2026-04-26 05:25 24.70701 58.43767 38341 ft 541 kts 100°
2026-04-26 05:25 24.69866 58.47804 38492 ft 542 kts 99°
2026-04-26 05:25 24.69031 58.51834 38668 ft 540 kts 100°
2026-04-26 05:26 24.68195 58.55860 38855 ft 540 kts 100°
2026-04-26 05:26 24.67356 58.59893 38870 ft 540 kts 100°
2026-04-26 05:26 24.65683 58.67932 38873 ft 540 kts 100°
2026-04-26 05:27 24.64003 58.75978 38870 ft 540 kts 100°
2026-04-26 05:27 24.62328 58.83977 38867 ft 540 kts 100°
2026-04-26 05:28 24.60639 58.92023 38868 ft 540 kts 100°
2026-04-26 05:28 24.58945 59.00070 38866 ft 540 kts 100°
2026-04-26 05:29 24.57245 59.08121 38864 ft 540 kts 100°
2026-04-26 05:29 24.55555 59.16104 38867 ft 540 kts 100°
2026-04-26 05:30 24.53849 59.24145 38869 ft 540 kts 100°
2026-04-26 05:30 24.52140 59.32178 38878 ft 539 kts 100°
2026-04-26 05:31 24.50430 59.40171 38865 ft 539 kts 100°
2026-04-26 05:31 24.48709 59.48198 38865 ft 539 kts 100°
2026-04-26 05:32 24.46986 59.56216 38865 ft 539 kts 100°
2026-04-26 05:32 24.45259 59.64237 38873 ft 539 kts 101°
2026-04-26 05:33 24.43539 59.72196 38858 ft 539 kts 100°
2026-04-26 05:33 24.41804 59.80210 38864 ft 538 kts 100°
2026-04-26 05:34 24.40069 59.88202 38862 ft 538 kts 100°
2026-04-26 05:34 24.38327 59.96200 38862 ft 537 kts 101°
2026-04-26 05:35 24.36600 60.04109 38862 ft 537 kts 101°
2026-04-26 05:35 24.34856 60.12085 38863 ft 537 kts 101°
2026-04-26 05:36 24.33110 60.20050 38863 ft 537 kts 101°
2026-04-26 05:36 24.31363 60.27991 38863 ft 535 kts 101°
2026-04-26 05:37 24.29616 60.35912 38866 ft 533 kts 101°
2026-04-26 05:37 24.27882 60.43761 38865 ft 533 kts 101°
2026-04-26 05:38 24.26135 60.51648 38863 ft 530 kts 101°
2026-04-26 05:38 24.24394 60.59481 38867 ft 528 kts 101°
2026-04-26 05:39 24.22652 60.67306 38864 ft 528 kts 101°
2026-04-26 05:39 24.20915 60.75087 38865 ft 528 kts 101°
2026-04-26 05:40 24.19169 60.82905 38868 ft 526 kts 101°
2026-04-26 05:40 24.17434 60.90659 38870 ft 525 kts 102°
2026-04-26 05:41 24.15686 60.98446 38866 ft 526 kts 102°
2026-04-26 05:41 24.13946 61.06186 38873 ft 526 kts 102°
2026-04-26 05:42 24.12191 61.13965 38870 ft 526 kts 102°
2026-04-26 05:42 24.10434 61.21738 38869 ft 526 kts 102°
2026-04-26 05:43 24.08672 61.29512 38871 ft 526 kts 102°
2026-04-26 05:43 24.07590 61.37334 38874 ft 521 kts 92°
2026-04-26 05:44 24.07055 61.45248 38873 ft 520 kts 91°
2026-04-26 05:44 24.06609 61.53148 38869 ft 520 kts 91°
2026-04-26 05:45 24.06155 61.61068 38874 ft 520 kts 91°
2026-04-26 05:45 24.05687 61.68920 38872 ft 520 kts 91°
2026-04-26 05:46 24.05204 61.76832 38870 ft 520 kts 91°
2026-04-26 05:46 24.04716 61.84737 38875 ft 519 kts 91°
2026-04-26 05:47 24.04226 61.92617 38879 ft 519 kts 91°
2026-04-26 05:47 24.03733 62.00486 38876 ft 517 kts 91°
2026-04-26 05:48 24.03241 62.08291 38876 ft 517 kts 91°
2026-04-26 05:48 24.02742 62.16132 38875 ft 517 kts 91°
2026-04-26 05:49 24.01986 62.27904 38880 ft 516 kts 91°
2026-04-26 05:50 24.01477 62.35738 38879 ft 516 kts 91°
2026-04-26 05:50 24.00965 62.43573 38875 ft 516 kts 91°
2026-04-26 05:51 24.00452 62.51347 38875 ft 516 kts 91°
2026-04-26 05:51 23.99932 62.59175 38878 ft 516 kts 92°
2026-04-26 05:52 23.99407 62.67017 38879 ft 516 kts 92°
2026-04-26 05:52 23.98879 62.74845 38881 ft 516 kts 92°
2026-04-26 05:53 23.98349 62.82635 38881 ft 516 kts 92°
2026-04-26 05:53 23.97814 62.90456 38881 ft 515 kts 92°
2026-04-26 05:54 23.97275 62.98266 38882 ft 515 kts 92°
2026-04-26 05:54 23.96732 63.06077 38883 ft 514 kts 92°
2026-04-26 05:55 23.96186 63.13878 38889 ft 515 kts 92°
2026-04-26 05:55 23.95638 63.21646 38878 ft 515 kts 93°
2026-04-26 05:56 23.95082 63.29466 38882 ft 515 kts 93°
2026-04-26 05:56 23.94523 63.37290 38882 ft 515 kts 93°
2026-04-26 05:57 23.93960 63.45097 38890 ft 515 kts 93°